Copper Harbor, MI (49918)

9:49 PM EST on February 09, 2016 (GMT -0500)
Houghton County Memorial | | Change Station
CLOSE
Current Station
Airport
Location: Houghton,
Elevation: 1079 ft
Nearby Weather Stations
Active Advisory: Lake Effect Snow Advisory

Elev 1079 ft 47.17 °N, 88.49 °W | Updated 29 minutes ago

Overcast
Overcast
8 °F
Feels Like -8 °F
N
13
Wind Variable Wind from North
Gusts 24 mph

Today
High -- | Low -- °F
--% Chance of Precip.
Yesterday
High -- | Low -- °F
Precip. -- in
Pressure 29.95 in
Visibility 1.5 miles
Clouds Overcast 1700 ft
Windchill -8 °F
Dew Point 2 °F
Humidity 76%
Rainfall 0.01 in
Snow Depth Not available.
8:07 AM 6:05 PM
Waxing Crescent, 3% visible
SPECI KCMX 100220Z AUTO 35011G21KT 1 1/2SM HZ OVC017 M13/M17 A2995 RMK AO2 T11331167 PWINO FZRANO TSNO $
Pressure 29.95 in
Visibility 1.5 miles
Clouds Overcast 1700 ft
Windchill -8 °F
Dew Point 2 °F
Humidity 76%
Rainfall 0.01 in
Snow Depth Not available.
8:07 AM 6:05 PM
Waxing Crescent, 3% visible
SPECI KCMX 100220Z AUTO 35011G21KT 1 1/2SM HZ OVC017 M13/M17 A2995 RMK AO2 T11331167 PWINO FZRANO TSNO $

10-Day Weather Forecast

Almanac

Astronomy

Feb. 09, 2016 Rise Set
Actual Time
Civil Twilight
Nautical Twilight
Astronomical Twilight
Moon
Length of Visible Light
Length of Day
Tomorrow will be .
, % of the Moon is Illuminated

Today's Extremes

State Highs State Lows

Community

WunderPhotos

Upload Photos

1,891,786 photos uploaded!

WunderBlog® & News

Nearby

Air Quality

  Air Quality AQ Index Pollutant
Not available.

Snow Depth

Station Depth Elevation

Earthquake Activity

City Distance Mag. Time & Date
Minimum magnitude displayed is 2.5.

Coastal Water Temperatures

Place Temperature

Stations

Nearby Weather Stations

Station Location Temp. Windchill Dew Point Humidity Wind Precip. Elev Updated Type
                   

Watches & Warnings

Lake Effect Snow Advisory
Issued: 9:46 PM EST Feb. 9, 2016 – National Weather Service

... Lake effect Snow Advisory remains in effect until 7 PM EST
Wednesday...

Hazardous weather...

* lake effect snow showers will continue into Wednesday
   afternoon before diminishing late.

* Tonight through Wednesday afternoon... look for additional snow
   accumulations of 2 to 6 inches... with the greatest amounts in the
   higher terrain from Twin Lakes to Calumet and Delaware.

* Expect areas of blowing snow with sharply reduced visibility
   through Wednesday afternoon... especially along Lake Superior.

Impacts...

* roads will be snow covered and slippery.

Precautionary/preparedness actions...

* a lake effect Snow Advisory Means Lake effect snow is
   forecast that will make travel difficult in some areas.

* Prepare... plan... and stay informed. Visit www.Weather.Gov/MQT



Rolfson